N8BAP Weather Reports


Display with metric or nautical units.
time (UTC)temp
F
wind
direction
speed
MPH
gust
MPH
rain 1hr
in
rain 24hr
in
rain mn
in
humidity
%
barometer
mb
20260507081803 41 248 0.0 0.0 0.00 0.00 0.00 97 1019.3
20260507081258 41 284 0.0 0.0 0.00 0.00 0.00 97 1019.3
20260507080755 41 290 0.0 0.0 0.00 0.00 0.00 96 1019.2
20260507080251 41 290 0.0 0.0 0.00 0.00 0.00 97 1019.3
20260507075746 41 290 0.0 0.0 0.00 0.00 0.00 97 1019.4
20260507075243 41 290 0.0 0.0 0.00 0.00 0.00 97 1019.2
20260507074739 41 290 0.0 0.0 0.00 0.00 0.00 97 1019.1
20260507074238 41 303 0.0 0.0 0.00 0.00 0.00 97 1019.2
20260507073734 41 303 0.0 0.0 0.00 0.00 0.00 96 1019.3
20260507073230 41 304 0.0 0.0 0.00 0.00 0.00 96 1019.3
20260507072728 41 284 0.0 0.0 0.00 0.00 0.00 97 1019.2
20260507072225 41 267 0.0 0.0 0.00 0.00 0.00 97 1019.2
20260507071723 41 303 0.0 0.0 0.00 0.00 0.00 97 1019.4
20260507071219 40 281 0.0 0.0 0.00 0.00 0.00 96 1019.3
20260507070716 40 306 0.0 0.0 0.00 0.00 0.00 96 1019.2
20260507070213 40 326 0.0 0.0 0.00 0.00 0.00 96 1019.2
20260507065709 40 292 0.0 0.0 0.00 0.00 0.00 96 1019.3
20260507065206 40 300 0.0 0.0 0.00 0.00 0.00 96 1019.3
20260507064704 41 327 0.0 0.0 0.00 0.00 0.00 96 1019.3
20260507064203 40 325 0.0 0.0 0.00 0.00 0.00 96 1019.4
20260507063659 40 325 0.0 0.0 0.00 0.00 0.00 96 1019.2
20260507063156 41 325 0.0 0.0 0.00 0.00 0.00 96 1019.3
20260507062653 41 325 0.0 0.0 0.00 0.00 0.00 96 1019.2
20260507062151 41 325 0.0 0.0 0.00 0.00 0.00 96 1019.2
20260507061648 41 325 0.0 0.0 0.00 0.00 0.00 96 1019.5
20260507061146 41 324 0.0 0.0 0.00 0.00 0.00 96 1019.4
20260507060644 41 326 0.0 0.0 0.00 0.00 0.00 96 1019.4
20260507060140 41 262 0.0 0.0 0.00 0.00 0.00 96 1019.4
20260507055636 41 262 0.0 0.0 0.00 0.00 0.00 96 1019.6
20260507055132 40 262 0.0 0.0 0.00 0.00 0.00 95 1019.5
20260507054628 41 261 0.0 0.0 0.00 0.00 0.00 95 1019.5
20260507054125 41 261 0.0 0.0 0.00 0.00 0.00 95 1019.6
20260507053623 41 261 0.0 0.0 0.00 0.00 0.00 95 1019.5
20260507053121 42 276 0.0 0.0 0.00 0.00 0.00 95 1019.6
20260507052619 42 239 0.0 0.0 0.00 0.00 0.00 95 1019.6
20260507052115 42 238 0.0 0.0 0.00 0.00 0.00 95 1019.5
20260507051613 42 238 0.0 0.0 0.00 0.00 0.00 95 1019.8
20260507051110 42 239 0.0 0.0 0.00 0.00 0.00 95 1019.6
20260507050606 42 238 0.0 0.0 0.00 0.00 0.00 95 1019.8
20260507050103 42 238 0.0 0.0 0.00 0.00 0.00 95 1019.6
20260507045600 42 238 0.0 0.0 0.00 0.00 0.00 95 1019.7
20260507045057 42 239 0.0 0.0 0.00 0.00 0.00 95 1019.7
20260507044553 42 245 0.0 0.0 0.00 0.00 0.00 94 1019.6
20260507044050 43 253 0.0 0.0 0.00 0.00 0.00 94 1019.5
20260507043546 43 253 0.0 0.0 0.00 0.00 0.00 94 1019.3
20260507043044 43 252 0.0 0.0 0.00 0.00 0.00 95 1019.7
20260507042539 43 280 0.0 0.0 0.00 0.00 0.00 94 1019.8
20260507042035 43 299 0.0 0.0 0.00 0.00 0.00 94 1019.6
20260507041532 42 299 0.0 0.0 0.00 0.00 0.00 94 1019.6
20260507041029 42 299 0.0 0.0 0.00 0.00 0.00 93 1019.6
20260507040525 43 299 0.0 0.0 0.00 0.00 0.00 93 1019.4
20260507040021 43 299 0.0 0.0 0.00 0.39 0.39 93 1019.9
20260507035518 43 298 0.0 0.0 0.00 0.39 0.39 93 1019.7
20260507035014 44 299 0.0 0.0 0.00 0.39 0.39 93 1019.7
20260507034511 43 286 0.0 0.0 0.00 0.39 0.39 93 1019.8
20260507034009 44 302 0.0 0.0 0.00 0.39 0.39 92 1019.8
20260507033507 44 302 0.0 0.0 0.00 0.39 0.39 92 1019.6
20260507033004 44 302 0.0 0.0 0.00 0.39 0.39 92 1019.7
20260507032501 44 302 0.0 0.0 0.00 0.39 0.39 91 1019.6
20260507031957 44 302 0.0 0.0 0.00 0.39 0.39 91 1019.6
20260507031453 44 302 0.0 0.0 0.00 0.39 0.39 90 1019.9
20260507030950 44 302 0.0 0.0 0.00 0.39 0.39 90 1019.8
20260507030447 44 301 0.0 0.0 0.00 0.39 0.39 90 1019.8
20260507025944 44 300 0.0 0.0 0.00 0.39 0.39 90 1020.1
20260507025442 44 303 0.0 0.0 0.00 0.39 0.39 89 1019.7
20260507024939 44 303 0.0 0.0 0.00 0.39 0.39 88 1019.8
20260507024437 44 303 0.0 0.0 0.00 0.39 0.39 86 1019.9
20260507023932 45 303 0.0 0.0 0.00 0.39 0.39 85 1019.8
20260507023429 46 303 0.0 0.0 0.00 0.39 0.39 84 1019.9
20260507022926 46 303 0.0 0.0 0.00 0.39 0.39 83 1019.7
20260507022424 47 303 0.0 0.0 0.00 0.39 0.39 81 1019.8
20260507021919 47 303 0.0 0.0 0.00 0.39 0.39 80 1019.7
20260507021414 48 303 0.0 0.0 0.00 0.39 0.39 79 1019.7
20260507020913 49 303 0.0 0.0 0.00 0.39 0.39 78 1019.6
20260507020409 49 302 0.0 0.0 0.00 0.39 0.39 77 1019.7
20260507015906 48 310 0.0 0.0 0.00 0.39 0.39 78 1019.7
20260507015404 49 325 0.0 0.0 0.00 0.39 0.39 77 1019.5
20260507014901 49 325 0.0 0.0 0.00 0.39 0.39 77 1019.4
20260507014356 49 327 0.0 0.0 0.00 0.39 0.39 75 1019.2
20260507013853 49 352 0.0 0.0 0.00 0.39 0.39 74 1019.1
20260507013345 49 348 0.0 0.0 0.00 0.39 0.39 71 1019.0
20260507012842 50 336 0.0 0.0 0.00 0.39 0.39 70 1018.9
20260507012337 50 335 0.0 0.0 0.00 0.39 0.39 70 1019.1
20260507011834 51 335 0.0 0.0 0.00 0.39 0.39 69 1019.1
20260507011331 51 337 1.0 1.0 0.00 0.39 0.39 68 1019.1
20260507010826 51 343 0.0 0.0 0.00 0.39 0.39 67 1019.4
20260507010322 51 345 1.0 2.0 0.00 0.39 0.39 67 1019.1
20260507005819 51 341 0.0 0.0 0.00 0.39 0.39 67 1018.8
20260507005316 51 340 0.0 0.0 0.00 0.39 0.39 66 1019.4
20260507004807 52 320 2.0 2.0 0.00 0.39 0.39 65 1019.0
20260507004304 52 343 1.0 2.0 0.00 0.39 0.39 64 1019.3
20260507003801 52 352 1.0 1.0 0.00 0.39 0.39 62 1019.1
20260507003255 53 339 2.0 3.0 0.00 0.39 0.39 61 1018.9
20260507002752 53 354 1.0 1.0 0.00 0.39 0.39 61 1018.8
20260507002248 54 316 3.0 3.0 0.00 0.39 0.39 59 1018.8
20260507001745 54 5 1.0 1.0 0.00 0.39 0.39 60 1018.8
20260507001242 54 359 2.0 2.0 0.00 0.39 0.39 58 1018.6
20260507000738 54 356 4.0 5.0 0.00 0.39 0.39 59 1018.2
20260507000234 54 17 5.0 6.0 0.00 0.39 0.39 61 1018.3
20260506235731 55 340 1.0 1.0 0.00 0.39 0.39 60 1018.1
20260506235227 55 353 4.0 5.0 0.00 0.39 0.39 58 1018.2
20260506234724 55 12 1.0 2.0 0.00 0.39 0.39 61 1018.1
20260506234221 55 348 1.0 1.0 0.00 0.39 0.39 59 1017.9
20260506233719 54 14 4.0 5.0 0.00 0.39 0.39 59 1018.1
20260506233215 55 353 2.0 2.0 0.00 0.39 0.39 62 1017.9
20260506232712 55 340 4.0 6.0 0.00 0.39 0.39 59 1017.8
20260506232207 55 0 4.0 6.0 0.00 0.39 0.39 58 1017.7
20260506231704 55 338 3.0 3.0 0.00 0.39 0.39 60 1017.9
20260506231203 55 345 2.0 2.0 0.00 0.39 0.39 57 1018.0
20260506230659 55 38 2.0 2.0 0.00 0.39 0.39 58 1017.9
20260506230156 55 339 4.0 6.0 0.00 0.39 0.39 58 1017.9
20260506225652 56 322 3.0 6.0 0.00 0.39 0.39 56 1018.2
20260506225149 56 7 3.0 3.0 0.00 0.39 0.39 54 1018.2
20260506224646 56 352 5.0 7.0 0.00 0.39 0.39 55 1018.1
20260506224142 56 340 3.0 3.0 0.00 0.39 0.39 56 1018.3
20260506223639 57 348 4.0 6.0 0.00 0.39 0.39 55 1018.3
20260506223135 57 338 4.0 6.0 0.00 0.39 0.39 56 1018.3
20260506222632 57 321 6.0 7.0 0.00 0.39 0.39 56 1018.5
20260506222128 57 340 2.0 2.0 0.00 0.39 0.39 57 1018.8
20260506221626 57 351 5.0 7.0 0.00 0.39 0.39 56 1018.4
20260506221124 56 350 3.0 3.0 0.00 0.39 0.39 59 1018.1
20260506220620 56 329 6.0 8.0 0.00 0.39 0.39 57 1018.5
20260506220115 57 346 5.0 6.0 0.00 0.39 0.39 56 1018.8
20260506215612 57 342 6.0 8.0 0.00 0.39 0.39 57 1018.3
20260506215108 57 346 6.0 8.0 0.00 0.39 0.39 57 1018.4
20260506214605 57 353 4.0 5.0 0.00 0.39 0.39 59 1018.0
20260506214102 57 329 6.0 7.0 0.00 0.39 0.39 56 1018.3
20260506213600 57 1 3.0 3.0 0.00 0.39 0.39 56 1017.9
20260506213057 57 348 3.0 3.0 0.00 0.39 0.39 55 1018.1
20260506212554 58 333 5.0 7.0 0.00 0.39 0.39 56 1017.8
20260506212049 58 327 6.0 7.0 0.00 0.39 0.39 54 1017.8
20260506211545 58 326 3.0 3.0 0.00 0.39 0.39 54 1017.9
20260506211042 59 350 2.0 2.0 0.00 0.39 0.39 54 1017.8
20260506210539 58 306 3.0 6.0 0.00 0.39 0.39 58 1017.7
20260506210035 58 350 6.0 8.0 0.00 0.39 0.39 53 1017.6
20260506205532 58 0 1.0 2.0 0.00 0.39 0.39 57 1017.6
20260506205027 59 324 6.0 7.0 0.00 0.39 0.39 52 1017.6
20260506204526 59 11 1.0 2.0 0.00 0.39 0.39 51 1017.7
20260506204022 59 352 2.0 2.0 0.00 0.39 0.39 55 1017.8
20260506203521 59 327 3.0 7.0 0.00 0.39 0.39 52 1017.7
20260506203017 59 338 3.0 5.0 0.00 0.39 0.39 55 1017.6
20260506202514 59 349 3.0 3.0 0.00 0.39 0.39 54 1017.9
20260506202010 59 333 5.0 7.0 0.00 0.39 0.39 54 1017.8
20260506201509 59 304 3.0 3.0 0.00 0.39 0.39 56 1017.8
20260506201004 59 357 5.0 6.0 0.00 0.39 0.39 55 1017.8
20260506200501 60 324 4.0 5.0 0.00 0.39 0.39 52 1017.9
20260506195957 59 323 3.0 5.0 0.00 0.39 0.39 55 1017.7
20260506195454 59 23 2.0 5.0 0.00 0.39 0.39 55 1017.6
20260506194945 59 8 4.0 5.0 0.00 0.39 0.39 54 1017.6
20260506194443 59 316 3.0 3.0 0.00 0.39 0.39 53 1017.7
20260506193939 59 30 1.0 1.0 0.00 0.39 0.39 55 1017.6
20260506193436 60 330 3.0 5.0 0.00 0.39 0.39 52 1017.4
20260506192933 61 3 4.0 6.0 0.00 0.39 0.39 51 1017.4
20260506192430 62 312 4.0 5.0 0.00 0.39 0.39 54 1017.6
20260506191926 61 333 5.0 7.0 0.00 0.39 0.39 55 1017.3
20260506191423 61 326 4.0 7.0 0.00 0.39 0.39 55 1017.4
20260506190920 61 102 3.0 5.0 0.00 0.39 0.39 53 1017.5
20260506190416 60 278 2.0 5.0 0.00 0.39 0.39 56 1017.3
20260506185913 60 45 2.0 2.0 0.00 0.39 0.39 57 1017.5
20260506185411 61 347 7.0 10.0 0.00 0.39 0.39 52 1017.5
20260506184908 62 82 2.0 3.0 0.00 0.39 0.39 49 1017.4
20260506184404 60 341 3.0 3.0 0.00 0.39 0.39 58 1017.5
20260506183902 60 45 3.0 5.0 0.00 0.39 0.39 56 1017.5
20260506183357 59 1 7.0 8.0 0.00 0.39 0.39 53 1017.2
20260506182854 60 316 7.0 9.0 0.00 0.39 0.39 53 1017.7
20260506182351 60 329 7.0 9.0 0.00 0.39 0.39 58 1017.5
20260506181848 59 313 5.0 6.0 0.00 0.39 0.39 58 1017.4
20260506181347 59 15 1.0 1.0 0.00 0.39 0.39 60 1017.2
20260506180843 59 71 4.0 6.0 0.00 0.39 0.39 59 1017.6
20260506180339 59 31 4.0 5.0 0.00 0.39 0.39 53 1017.7
20260506175836 58 1 4.0 6.0 0.00 0.39 0.39 59 1017.9
20260506175333 58 357 3.0 5.0 0.00 0.39 0.39 56 1017.9
20260506174830 59 18 2.0 3.0 0.00 0.39 0.39 58 1017.7
20260506174327 58 326 7.0 7.0 0.00 0.39 0.39 56 1017.8
20260506173825 58 72 5.0 6.0 0.00 0.39 0.39 56 1017.9
20260506173321 58 12 1.0 2.0 0.00 0.39 0.39 60 1017.6
20260506172818 58 335 3.0 3.0 0.00 0.39 0.39 57 1017.7
20260506172314 58 347 3.0 5.0 0.00 0.39 0.39 59 1017.8
20260506171807 58 59 2.0 3.0 0.00 0.39 0.39 62 1017.9
20260506171304 59 104 3.0 3.0 0.00 0.39 0.39 63 1017.8
20260506170802 57 2 3.0 5.0 0.00 0.39 0.39 65 1017.8
20260506170257 57 18 5.0 6.0 0.00 0.39 0.39 62 1018.1
20260506165756 57 71 5.0 8.0 0.00 0.39 0.39 58 1018.3
20260506165253 57 357 3.0 5.0 0.00 0.39 0.39 64 1018.0
20260506164750 57 0 7.0 10.0 0.00 0.39 0.39 65 1017.8
20260506164247 57 4 7.0 9.0 0.00 0.39 0.39 59 1018.0
20260506163743 57 359 1.0 2.0 0.00 0.39 0.39 59 1017.7
20260506163238 57 37 3.0 3.0 0.00 0.39 0.39 66 1017.8
20260506162735 57 350 1.0 1.0 0.00 0.39 0.39 64 1017.7
20260506162233 56 12 3.0 5.0 0.00 0.39 0.39 67 1017.6
20260506161729 55 353 2.0 2.0 0.00 0.39 0.39 64 1017.7
20260506161226 55 335 5.0 8.0 0.00 0.39 0.39 65 1017.8
20260506160724 55 309 5.0 7.0 0.00 0.39 0.39 67 1017.9
20260506160220 55 9 3.0 3.0 0.00 0.39 0.39 68 1018.0
20260506155719 55 30 5.0 6.0 0.00 0.39 0.39 67 1018.0
20260506155215 55 351 5.0 8.0 0.00 0.39 0.39 68 1017.8
20260506153317 56 10 2.0 2.0 0.00 0.39 0.39 74 1017.4
20260506152814 55 348 3.0 5.0 0.00 0.39 0.39 72 1017.2
20260506152311 54 22 3.0 6.0 0.00 0.39 0.39 72 1017.5
20260506151810 54 354 1.0 2.0 0.00 0.39 0.39 70 1017.4
20260506151306 54 31 3.0 6.0 0.00 0.39 0.39 71 1017.3
20260506150803 54 4 1.0 1.0 0.00 0.39 0.39 73 1016.9
20260506150304 53 31 1.0 2.0 0.00 0.39 0.39 73 1016.8
20260506145757 54 18 3.0 5.0 0.00 0.39 0.39 74 1016.9
20260506145253 53 104 3.0 5.0 0.00 0.39 0.39 73 1017.1
20260506144751 53 318 5.0 7.0 0.00 0.39 0.39 73 1016.8
20260506144248 53 15 5.0 7.0 0.00 0.39 0.39 74 1016.8
20260506143745 53 74 2.0 5.0 0.00 0.39 0.39 74 1016.7
20260506143243 52 69 0.0 1.0 0.00 0.39 0.39 80 1016.7
20260506142741 52 39 4.0 5.0 0.00 0.39 0.39 77 1016.8
20260506142239 52 17 2.0 2.0 0.00 0.39 0.39 78 1016.7
20260506141736 51 4 2.0 3.0 0.00 0.39 0.39 80 1016.7
20260506141235 52 3 4.0 7.0 0.00 0.39 0.39 77 1016.8
20260506140732 52 7 2.0 3.0 0.00 0.39 0.39 76 1016.9
20260506140229 52 1 2.0 2.0 0.00 0.39 0.39 77 1016.5
20260506135725 53 243 1.0 2.0 0.00 0.39 0.39 77 1016.1
20260506135222 52 33 2.0 2.0 0.00 0.39 0.39 79 1016.5
20260506134719 51 8 1.0 1.0 0.00 0.39 0.39 83 1016.2
20260506134215 51 9 2.0 2.0 0.00 0.39 0.39 79 1016.4
20260506133712 51 20 2.0 3.0 0.00 0.39 0.39 84 1016.3
20260506133209 50 351 3.0 3.0 0.00 0.39 0.39 81 1016.1
20260506132706 50 345 2.0 2.0 0.00 0.39 0.39 82 1016.0
20260506132203 50 349 6.0 8.0 0.00 0.39 0.39 83 1016.2
20260506131701 49 332 4.0 6.0 0.00 0.39 0.39 87 1015.9
20260506131156 48 18 0.0 1.0 0.00 0.39 0.39 89 1016.3
20260506130653 47 30 4.0 5.0 0.00 0.39 0.39 87 1016.2
20260506130151 47 338 3.0 5.0 0.00 0.39 0.39 89 1016.2
20260506125649 47 29 2.0 2.0 0.00 0.39 0.39 90 1016.0
20260506125146 47 322 4.0 5.0 0.00 0.39 0.39 91 1015.9
20260506124644 47 25 1.0 2.0 0.00 0.39 0.39 92 1015.6
20260506124142 46 8 2.0 2.0 0.00 0.39 0.39 92 1015.8
20260506123639 46 334 2.0 2.0 0.00 0.39 0.39 93 1015.7
20260506123138 46 358 1.0 2.0 0.00 0.39 0.39 93 1015.6
20260506122634 46 13 1.0 1.0 0.00 0.39 0.39 93 1015.2
20260506122132 46 348 3.0 3.0 0.00 0.39 0.39 93 1015.3
20260506121629 46 29 1.0 1.0 0.00 0.39 0.39 94 1015.5
20260506121125 46 325 2.0 2.0 0.00 0.39 0.39 94 1015.3
20260506120624 46 313 4.0 5.0 0.00 0.39 0.39 95 1015.2
20260506120121 46 354 2.0 2.0 0.00 0.39 0.39 95 1015.0
20260506115619 46 23 2.0 2.0 0.00 0.39 0.39 95 1014.7
20260506115117 46 0 2.0 2.0 0.00 0.39 0.39 95 1014.5
20260506114614 46 352 4.0 5.0 0.00 0.39 0.39 95 1014.8
20260506114112 46 358 5.0 6.0 0.00 0.39 0.39 95 1015.0
20260506113610 46 19 7.0 9.0 0.00 0.39 0.39 96 1014.8
20260506113107 46 332 3.0 5.0 0.00 0.39 0.39 96 1014.8
20260506112603 46 354 7.0 9.0 0.00 0.39 0.39 96 1014.8
20260506112101 46 326 5.0 6.0 0.00 0.39 0.39 96 1014.2
20260506111558 46 358 4.0 5.0 0.00 0.39 0.39 96 1014.0
20260506111055 46 6 1.0 1.0 0.00 0.39 0.39 96 1014.2
20260506110553 46 339 4.0 5.0 0.00 0.39 0.39 96 1014.3
20260506110050 46 3 4.0 7.0 0.00 0.39 0.39 96 1013.9
20260506105546 46 322 2.0 2.0 0.00 0.39 0.39 96 1013.6
20260506105044 46 76 0.0 1.0 0.00 0.39 0.39 96 1013.5
20260506104542 46 354 1.0 2.0 0.00 0.39 0.39 96 1013.6
20260506104039 46 49 0.0 0.0 0.00 0.39 0.39 96 1013.4
20260506103536 46 90 2.0 2.0 0.00 0.39 0.39 96 1013.4
20260506103033 46 96 1.0 1.0 0.00 0.39 0.39 96 1013.0
20260506102531 46 97 1.0 2.0 0.00 0.39 0.39 96 1012.8
20260506102028 46 53 0.0 0.0 0.05 0.39 0.39 96 1012.9
20260506101525 46 358 1.0 1.0 0.05 0.39 0.39 96 1013.2
20260506101022 45 326 1.0 2.0 0.00 0.38 0.38 96 1013.4
20260506100520 45 21 3.0 5.0 0.00 0.38 0.38 96 1013.6
20260506100018 45 313 3.0 3.0 0.00 0.38 0.38 96 1013.6
20260506095517 45 24 5.0 7.0 0.00 0.38 0.38 96 1013.3
20260506095012 46 352 5.0 7.0 0.00 0.38 0.38 96 1013.1
20260506094511 46 57 1.0 2.0 0.00 0.38 0.38 96 1013.2
20260506094008 46 45 4.0 6.0 0.00 0.38 0.38 96 1013.0
20260506093506 46 336 2.0 3.0 0.00 0.38 0.38 96 1012.7
20260506093004 46 15 3.0 3.0 0.00 0.38 0.38 96 1012.9
20260506092501 46 37 6.0 8.0 0.00 0.38 0.38 96 1013.0
20260506091957 46 2 6.0 8.0 0.00 0.38 0.38 96 1013.1
20260506091456 46 355 7.0 10.0 0.07 0.38 0.38 96 1013.1
20260506090953 46 10 4.0 7.0 0.07 0.38 0.38 97 1012.6
20260506090451 46 55 1.0 2.0 0.00 0.37 0.37 97 1012.7
20260506085946 47 22 0.0 1.0 0.05 0.37 0.37 97 1012.7
20260506085444 46 29 1.0 1.0 0.05 0.37 0.37 97 1012.7
20260506084940 47 40 1.0 2.0 0.00 0.36 0.36 97 1012.9
20260506084437 46 354 3.0 3.0 0.00 0.36 0.36 96 1012.5
20260506083933 46 6 2.0 2.0 0.00 0.36 0.36 96 1012.8
20260506083430 47 22 3.0 3.0 0.00 0.36 0.36 96 1012.7
20260506082928 47 12 4.0 5.0 0.00 0.36 0.36 96 1012.5
20260506082425 47 340 3.0 5.0 0.00 0.36 0.36 96 1012.5
20260506081920 47 16 2.0 3.0 0.07 0.36 0.36 96 1012.2